FENGYUN 1C DEB

Satellite information

Favourite Embed

Satellite Type and Status

DEBRISIN ORBIT

Key statistics

Satellite FENGYUN 1C DEB at a glance.

Uptime

9556

Days in orbit

Revolutions

≈ 14.0

Per day

Orbit

SSO

Sun Synchronous Orbit

Inclination

98.8

Latest

Satellite identification and parameters

Extended collection of information and parameters for FENGYUN 1C DEB.

Object identification

Identified? True

Debris? True

Object name: FENGYUN 1C DEB

International designator: 1999-025YR

Object number (NORAD): 30280

Object ID (CCSDS): 30280

Country: PEOPLES REPUBLIC OF CHINA (PRC)

Current information (Y/N): Y

RCS size: SMALL

Orbital parameters

Period: 102.991 minutes

Inclination: 98.762 deg

SMA: 7278.244 km

Apoapsis: 959.515 km

Periapsis: 840.703 km

RAAN: 185.2603 deg

Eccentricy: 0.0081621

Argument of periapsis: 47.5043 deg

Mean anomaly: 342.7406 deg

Mean motion: 13.9817928 rev/day

Mean motion (dot): 0.00000436 rev/day2

B* drag term: 0.00032549 1/REarth

Two-line elements (TLE)

Creation date: July 8, 2025, 2:27 a.m.

Reference frame: TEME

Reference center: EARTH

Epoch: July 7, 2025, 10:33 p.m. UTC

TLE line 0: 0 FENGYUN 1C DEB

TLE line 1: 1 30280U 99025YR 25188.93994385 .00000436 00000-0 32549-3 0 9991

TLE line 2: 2 30280 98.7620 185.2603 0081621 47.5043 342.7406 13.98179280942013

Live tracking on map

Real-time ground track for satellite FENGYUN 1C DEB.

In-orbit conjunctions

A list of the most updated potential collisions computed for object FENGYUN 1C DEB.

Target Orbit TCA Probability of collision Miss distance Type
FENGYUN 1C DEB SSO 2024-11-17 21:20:50 0.0002432688 36.0 (m) DEBRIS
COSMOS 1275 DEB LEO 2024-10-24 08:22:08 0.000324069 66.0 (m) DEBRIS
CZ-4B R/B SSO 2024-07-18 01:19:29 0.001511454 229.0 (m) ROCKET BODY

Associated space launch

Chinese polar orbiting meteorological satellite

FENGYUN 1C DEB was lifted into orbit during the mission ‘Long March 4B | Feng Yun 1C’, on board a Long March 4B space rocket.

The launch took place on May 10, 1999, 1:33 a.m. from Launch Complex 7.

For more information about the launch, click the button.

Launch to space Long March 4B | Feng Yun 1C
Long March 4B | Feng Yun 1C

Agency: N/A

Status: Launch Successful

Launch date: May 10, 1999, 1:33 a.m. UTC

Rocket: Long March 4B

Launch pad: Launch Complex 7

Location: Taiyuan Satellite Launch Center, People's Republic of China

...

Latest news about this satellite

There are no fresh news available about this satellite. Check back as we update our databases every day.


Newsletter sign-up

Weekly statistics, charts and insights to help you stay on top of the space industry.